Regional Weather Roundup
Issued by NWS Cleveland, OH

Home | Current Version | Previous Version | Text Only | Print | Product List | Glossary Off
Versions: 1 2 3 4 5 6 7 8 9 10 11 12 13 14 15 16 17 18 19 20 21 22 23 24 25 26 27 28 29 30 31 32 33 34 35 36 37 38 39 40 41 42 43 44 45 46 47 48 49 50

000
ASUS41 KCLE 310312
RWRCLE
OHIO REGIONAL WEATHER ROUNDUP
NATIONAL WEATHER SERVICE WILMINGTON, OH
1100 PM EDT TUE AUG 30 2016

NOTE: "FAIR" INDICATES FEW OR NO CLOUDS BELOW 12,000 FEET WITH NO
SIGNIFICANT WEATHER AND/OR OBSTRUCTIONS TO VISIBILITY.

OHZ001>008-015>018-024>027-034-035-043-044-310400-
   NORTHWEST OHIO

CITY           SKY/WX    TMP DP  RH WIND       PRES   REMARKS
DEFIANCE       MOCLDY    72  69  90 CALM      30.07F
FINDLAY        FAIR      74  70  87 W7        30.07S
TOLEDO EXPRESS LGT RAIN  72  72 100 W8        30.06S
TOLEDO EXEC    MOCLDY    75  71  87 MISG      30.07S
LIMA           RAIN      71  71 100 W5        30.09F
$$

OHZ009>014-019>023-028>033-038-089-310400-
   NORTHEAST OHIO

CITY           SKY/WX    TMP DP  RH WIND       PRES   REMARKS
CLE-HOPKINS    CLOUDY    76  60  57 SE5       30.08S
CLE-LAKEFRONT  FAIR      78  63  59 SE3       30.04F
CUY CO. ARPT   MOCLDY    75  68  78 SE7       30.07S
LORAIN-ELYRIA  FAIR      69  64  84 CALM      30.07S
ASHTABULA      MOCLDY    67  66  97 CALM      30.07F
AKRON-CANTON   MOCLDY    72  57  59 CALM      30.08S
WOOSTER        FAIR      66  65  96 CALM      30.08S
MANSFIELD      FAIR      73  64  73 SW3       30.09S
YOUNGSTOWN     FAIR      65  61  87 SE7       30.07F
$$

OHZ042-051>053-060>062-070>072-077>081-310400-
  SOUTHWEST OHIO

CITY           SKY/WX    TMP DP  RH WIND       PRES   REMARKS
CINC-COVINGTON FAIR      76  67  73 N3        30.08R
CINC-LUNKEN    FAIR      70  69  97 CALM      30.07R
HAMILTON       FAIR      70  67  90 CALM      30.08R
DAYTON         CLOUDY    73  70  90 N12       30.11R
WRIGHT-PAT AFB CLOUDY    75  68  78 NW10      30.09R
DAYTON GENERAL FAIR      75  63  66 CALM      30.09R
WILMINGTON     FAIR      70  66  87 CALM      30.08S
$$

OHZ036-037-039>041-045>050-054>059-063>069-073>076-082>088-310400-
  CENTRAL AND SOUTHEAST OHIO

CITY           SKY/WX    TMP DP  RH WIND       PRES   REMARKS
COLUMBUS       CLOUDY    72  64  76 CALM      30.06S
OSU AIRPORT    FAIR      75  65  70 N3        30.07S
BOLTON FIELD   FAIR      67  65  93 CALM      30.08S
RICKENBACK AFB FAIR      73  66  77 NW3       30.06S
NEWARK         FAIR      68  66  93 CALM      30.07R
MARION         FAIR      74  67  78 CALM      30.08S
LANCASTER      FAIR      67  65  93 CALM      30.07S
ZANESVILLE     FAIR      68  64  87 CALM      30.07S
NEW PHILLY     FAIR      68  61  78 CALM      30.08R
$$




USA.gov is the U.S. government's official web portal to all federal, state and local government web resources and services.